| time (UTC) | temp C | wind direction | speed KPH | gust KPH | rain 1hr cm | rain 24hr cm | rain mn cm | humidity % | barometer mb |
| 20260502161533 | 13 | 144 | 0.0 | 0.0 | 0.00 | 0.00 | 0.00 | 90 | 1012.6 |
| 20260502151527 | 10 | 144 | 0.0 | 0.0 | 0.00 | 0.00 | 0.00 | 90 | 1012.6 |
| 20260502123052 | 2 | 144 | 1.6 | 0.0 | 0.00 | 0.00 | 0.00 | 90 | 1011.5 |
| 20260502121547 | 6 | 144 | 0.0 | 0.0 | 0.00 | 0.00 | 0.00 | 90 | 1011.3 |
| 20260502114553 | 4 | 144 | 0.0 | 0.0 | 0.00 | 0.00 | 0.00 | 90 | 1011.4 |
| 20260502113045 | 5 | 144 | 0.0 | 0.0 | 0.00 | 0.00 | 0.00 | 90 | 1011.4 |
| 20260502111543 | 3 | 144 | 0.0 | 0.0 | 0.00 | 0.00 | 0.00 | 90 | 1011.6 |
| 20260502110042 | 3 | 144 | 0.0 | 0.0 | 0.00 | 0.00 | 0.00 | 90 | 1011.4 |
| 20260502104543 | 3 | 144 | 0.0 | 0.0 | 0.00 | 0.00 | 0.00 | 90 | 1011.5 |
| 20260502103040 | 3 | 144 | 0.0 | 0.0 | 0.00 | 0.00 | 0.00 | 90 | 1011.4 |
| 20260502101540 | 3 | 144 | 0.0 | 0.0 | 0.00 | 0.00 | 0.00 | 90 | 1011.3 |
| 20260502091530 | 7 | 144 | 0.0 | 0.0 | 0.00 | 0.00 | 0.00 | 90 | 1010.8 |
| 20260502071518 | 9 | 144 | 0.0 | 0.0 | 0.00 | 0.00 | 0.00 | 90 | 1010.6 |
| 20260502070016 | 6 | 144 | 0.0 | 0.0 | 0.00 | 0.00 | 0.00 | 90 | 1010.6 |
| 20260502064513 | 7 | 144 | 0.0 | 0.0 | 0.00 | 0.00 | 0.00 | 90 | 1010.4 |
| 20260502063012 | 7 | 144 | 0.0 | 0.0 | 0.00 | 0.00 | 0.00 | 90 | 1010.1 |
| 20260502061516 | 7 | 144 | 0.0 | 0.0 | 0.00 | 0.00 | 0.00 | 90 | 1010.0 |
| 20260502060007 | 8 | 144 | 0.0 | 0.0 | 0.00 | 0.00 | 0.00 | 90 | 1009.6 |
| 20260502054507 | 10 | 144 | 0.0 | 0.0 | 0.00 | 0.00 | 0.00 | 90 | 1009.5 |
| 20260502053006 | 10 | 144 | 0.0 | 0.0 | 0.00 | 0.00 | 0.00 | 90 | 1009.3 |
| 20260502051513 | 10 | 144 | 0.0 | 0.0 | 0.00 | 0.00 | 0.00 | 90 | 1009.3 |
| 20260502050005 | 10 | 144 | 0.0 | 0.0 | 0.00 | 0.00 | 0.00 | 90 | 1009.2 |
| 20260502044505 | 14 | 144 | 0.0 | 0.0 | 0.00 | 0.00 | 0.00 | 90 | 1009.0 |
| 20260502043004 | 13 | 144 | 0.0 | 0.0 | 0.00 | 0.00 | 0.00 | 90 | 1009.0 |
| 20260502041514 | 15 | 144 | 0.0 | 0.0 | 0.00 | 0.00 | 0.00 | 90 | 1009.0 |
| 20260502040012 | 13 | 144 | 0.0 | 0.0 | 0.00 | 0.00 | 0.00 | 90 | 1008.9 |
| 20260502034506 | 12 | 144 | 0.0 | 0.0 | 0.00 | 0.00 | 0.00 | 90 | 1008.8 |
| 20260502033003 | 13 | 144 | 0.0 | 0.0 | 0.00 | 0.00 | 0.00 | 90 | 1008.4 |
| 20260502031503 | 13 | 144 | 0.0 | 0.0 | 0.00 | 0.00 | 0.00 | 90 | 1008.3 |
| 20260502030003 | 15 | 144 | 0.0 | 0.0 | 0.00 | 0.00 | 0.00 | 90 | 1008.0 |
| 20260502024502 | 14 | 144 | 0.0 | 0.0 | 0.00 | 0.00 | 0.00 | 90 | 1007.8 |
| 20260502023002 | 15 | 144 | 0.0 | 0.0 | 0.00 | 0.00 | 0.00 | 90 | 1007.6 |
| 20260502021501 | 16 | 144 | 0.0 | 0.0 | 0.00 | 0.00 | 0.00 | 90 | 1007.5 |
| 20260502020001 | 17 | 144 | 0.0 | 0.0 | 0.00 | 0.00 | 0.00 | 90 | 1007.5 |
| 20260502014600 | 17 | 144 | 0.0 | 0.0 | 0.00 | 0.00 | 0.00 | 90 | 1007.3 |
| 20260502013100 | 17 | 144 | 0.0 | 0.0 | 0.00 | 0.00 | 0.00 | 90 | 1007.3 |
| 20260502011600 | 18 | 144 | 1.6 | 0.0 | 0.00 | 0.00 | 0.00 | 90 | 1007.2 |
| 20260502010109 | 18 | 144 | 0.0 | 0.0 | 0.00 | 0.00 | 0.00 | 90 | 1007.5 |
| 20260502004607 | 18 | 144 | 6.4 | 0.0 | 0.00 | 0.00 | 0.00 | 90 | 1007.3 |
| 20260502003104 | 18 | 144 | 0.0 | 0.0 | 0.00 | 0.00 | 0.00 | 90 | 1007.6 |
| 20260502001556 | 18 | 144 | 8.0 | 0.0 | 0.00 | 0.00 | 0.00 | 90 | 1007.7 |
| 20260502000055 | 18 | 144 | 0.0 | 0.0 | 0.00 | 0.00 | 0.00 | 90 | 1007.7 |
| 20260501234554 | 18 | 144 | 6.4 | 0.0 | 0.00 | 0.00 | 0.00 | 90 | 1007.8 |
| 20260501233056 | 18 | 144 | 3.2 | 0.0 | 0.00 | 0.00 | 0.00 | 90 | 1007.9 |
| 20260501231556 | 18 | 144 | 1.6 | 0.0 | 0.00 | 0.00 | 0.00 | 90 | 1007.8 |
| 20260501230058 | 17 | 144 | 8.0 | 0.0 | 0.00 | 0.00 | 0.00 | 90 | 1008.1 |
| 20260501224550 | 17 | 144 | 6.4 | 0.0 | 0.00 | 0.00 | 0.00 | 90 | 1008.2 |
| 20260501223054 | 17 | 144 | 8.0 | 0.0 | 0.00 | 0.00 | 0.00 | 90 | 1008.5 |
| 20260501221546 | 18 | 144 | 0.0 | 0.0 | 0.00 | 0.00 | 0.00 | 90 | 1008.7 |
| 20260501220047 | 17 | 144 | 4.8 | 0.0 | 0.00 | 0.00 | 0.00 | 90 | 1008.9 |
| 20260501214552 | 17 | 144 | 8.0 | 0.0 | 0.00 | 0.00 | 0.00 | 90 | 1009.3 |
| 20260501213039 | 17 | 144 | 9.7 | 0.0 | 0.00 | 0.00 | 0.00 | 90 | 1009.5 |
| 20260501211543 | 17 | 144 | 6.4 | 0.0 | 0.00 | 0.00 | 0.00 | 90 | 1009.5 |
| 20260501210044 | 17 | 144 | 8.0 | 0.0 | 0.00 | 0.00 | 0.00 | 90 | 1009.5 |
| 20260501204606 | 16 | 144 | 6.4 | 0.0 | 0.00 | 0.00 | 0.00 | 90 | 1009.7 |
| 20260501203035 | 16 | 144 | 1.6 | 0.0 | 0.00 | 0.00 | 0.00 | 90 | 1009.7 |
| 20260501201534 | 16 | 144 | 0.0 | 0.0 | 0.00 | 0.00 | 0.00 | 90 | 1010.1 |
| 20260501200031 | 16 | 144 | 3.2 | 0.0 | 0.00 | 0.00 | 0.00 | 90 | 1010.1 |
| 20260501194532 | 16 | 144 | 1.6 | 0.0 | 0.00 | 0.00 | 0.00 | 90 | 1010.2 |
| 20260501193030 | 16 | 144 | 3.2 | 0.0 | 0.00 | 0.00 | 0.00 | 90 | 1010.5 |
| 20260501191528 | 16 | 144 | 9.7 | 0.0 | 0.00 | 0.00 | 0.00 | 90 | 1010.5 |
| 20260501190026 | 15 | 144 | 0.0 | 0.0 | 0.00 | 0.00 | 0.00 | 90 | 1010.6 |
| 20260501184527 | 15 | 144 | 3.2 | 0.0 | 0.00 | 0.00 | 0.00 | 90 | 1010.7 |
| 20260501183023 | 15 | 144 | 3.2 | 0.0 | 0.00 | 0.00 | 0.00 | 90 | 1011.0 |
| 20260501181520 | 15 | 144 | 1.6 | 0.0 | 0.00 | 0.00 | 0.00 | 90 | 1011.2 |
| 20260501180018 | 15 | 144 | 0.0 | 0.0 | 0.00 | 0.00 | 0.00 | 90 | 1011.4 |
| 20260501174533 | 14 | 144 | 0.0 | 0.0 | 0.00 | 0.00 | 0.00 | 90 | 1011.4 |
| 20260501173010 | 14 | 144 | 0.0 | 0.0 | 0.00 | 0.00 | 0.00 | 90 | 1011.7 |
| 20260501171506 | 14 | 144 | 0.0 | 0.0 | 0.00 | 0.00 | 0.00 | 90 | 1011.8 |
| 20260501170002 | 13 | 144 | 1.6 | 0.0 | 0.00 | 0.00 | 0.00 | 90 | 1012.0 |
| 20260501164504 | 13 | 144 | 0.0 | 0.0 | 0.00 | 0.00 | 0.00 | 90 | 1012.1 |
| 20260501163058 | 13 | 144 | 0.0 | 0.0 | 0.00 | 0.00 | 0.00 | 90 | 1012.2 |